Location: Acorn Hill
(36.4429°N, 76.5469°W)
Time: 17:47:14
(UTC+00:00)

ISS - Visible Passes

Search period start: 24 July 2021 00:00
Search period end: 03 August 2021 00:00
Orbit: 419 x 421 km, 51.6° (Epoch: 24 July)

Date Brightness Start Highest point End Pass type
(mag) Time Alt. Az. Time Alt. Az. Time Alt. Az.
24 Jul -0.7 03:22:18 10° N 03:23:30 12° NNE 03:23:30 12° NNE visible
26 Jul -0.9 03:23:30 10° NNW 03:24:45 17° N 03:24:45 17° N visible
27 Jul -1.3 02:36:33 10° NNW 02:38:49 17° NNE 02:38:57 17° NNE visible
28 Jul -1.0 01:49:47 10° N 01:51:16 12° NNE 01:52:45 10° NE visible
28 Jul -0.8 03:25:16 10° NW 03:26:08 17° NW 03:26:08 17° NW visible
29 Jul -2.1 02:38:03 10° NW 02:40:24 32° N 02:40:24 32° N visible
30 Jul -2.1 01:50:58 10° NNW 01:53:47 24° NNE 01:54:43 21° ENE visible
30 Jul -0.4 03:27:33 10° WNW 03:27:40 11° WNW 03:27:40 11° WNW visible
31 Jul -1.5 01:03:58 10° NNW 01:06:16 17° NNE 01:08:33 10° ENE visible
31 Jul -2.0 02:40:01 10° NW 02:42:01 32° WNW 02:42:01 32° WNW visible
01 Aug -3.8 01:52:39 10° NW 01:56:02 68° NE 01:56:25 60° E visible
02 Aug -2.8 01:05:25 10° NW 01:08:37 38° NE 01:10:53 16° E visible
02 Aug -1.1 02:42:48 10° W 02:43:51 15° W 02:43:51 15° W visible
